| time (UTC) | temp C | wind direction | speed KPH | gust KPH | rain 1hr cm | rain 24hr cm | rain mn cm | humidity % | barometer mb |
| 20260510063037 | 12 | 38 | 17.7 | 30.6 | 0.00 | 0.00 | 0.00 | 79 | 1014.1 |
| 20260510061501 | 11 | 37 | 14.5 | 29.0 | 0.00 | 0.00 | 0.00 | 82 | 1014.1 |
| 20260510060116 | 11 | 36 | 14.5 | 32.2 | 0.00 | 0.00 | 0.00 | 85 | 1014.0 |
| 20260510054651 | 11 | 50 | 12.9 | 25.7 | 0.00 | 0.00 | 0.00 | 87 | 1014.0 |
| 20260510053115 | 10 | 40 | 16.1 | 25.7 | 0.00 | 0.00 | 0.00 | 88 | 1013.9 |
| 20260510051544 | 10 | 12 | 11.3 | 20.9 | 0.00 | 0.00 | 0.00 | 89 | 1014.0 |
| 20260510050008 | 9 | 29 | 11.3 | 19.3 | 0.00 | 0.00 | 0.00 | 89 | 1014.1 |
| 20260510044559 | 9 | 31 | 9.7 | 14.5 | 0.00 | 0.00 | 0.00 | 88 | 1014.1 |
| 20260510043046 | 9 | 32 | 9.7 | 16.1 | 0.00 | 0.00 | 0.00 | 88 | 1014.0 |
| 20260510041638 | 9 | 21 | 9.7 | 17.7 | 0.00 | 0.00 | 0.00 | 88 | 1014.0 |
| 20260510040105 | 10 | 18 | 12.9 | 20.9 | 0.00 | 0.00 | 0.00 | 88 | 1013.8 |
| 20260510034558 | 9 | 32 | 11.3 | 19.3 | 0.00 | 0.00 | 0.00 | 88 | 1013.9 |
| 20260510033047 | 10 | 35 | 9.7 | 16.1 | 0.00 | 0.00 | 0.00 | 88 | 1014.0 |
| 20260510031637 | 10 | 16 | 9.7 | 16.1 | 0.00 | 0.00 | 0.00 | 87 | 1014.0 |
| 20260510024506 | 10 | 26 | 9.7 | 19.3 | 0.00 | 0.00 | 0.00 | 88 | 1014.1 |
| 20260510023125 | 10 | 22 | 8.0 | 12.9 | 0.00 | 0.00 | 0.00 | 88 | 1014.1 |
| 20260510021611 | 10 | 28 | 8.0 | 14.5 | 0.00 | 0.00 | 0.00 | 88 | 1014.2 |
| 20260510020058 | 10 | 28 | 9.7 | 16.1 | 0.00 | 0.00 | 0.00 | 88 | 1014.1 |
| 20260510014557 | 10 | 13 | 8.0 | 12.9 | 0.00 | 0.00 | 0.00 | 87 | 1014.3 |
| 20260510013119 | 10 | 14 | 8.0 | 14.5 | 0.00 | 0.00 | 0.00 | 87 | 1014.4 |
| 20260510011609 | 10 | 26 | 8.0 | 14.5 | 0.00 | 0.00 | 0.00 | 86 | 1014.4 |
| 20260510010055 | 10 | 9 | 9.7 | 14.5 | 0.00 | 0.00 | 0.00 | 85 | 1014.4 |
| 20260510004630 | 10 | 29 | 8.0 | 16.1 | 0.00 | 0.00 | 0.00 | 84 | 1014.4 |
| 20260510003055 | 10 | 33 | 8.0 | 12.9 | 0.00 | 0.00 | 0.00 | 84 | 1014.6 |
| 20260510001544 | 11 | 19 | 6.4 | 14.5 | 0.00 | 0.00 | 0.00 | 83 | 1014.8 |
| 20260510000013 | 11 | 24 | 9.7 | 16.1 | 0.00 | 0.00 | 0.00 | 83 | 1014.8 |
| 20260509234625 | 11 | 45 | 9.7 | 19.3 | 0.00 | 0.00 | 0.00 | 82 | 1014.9 |
| 20260509233112 | 11 | 23 | 8.0 | 17.7 | 0.00 | 0.00 | 0.00 | 81 | 1015.0 |
| 20260509231610 | 11 | 43 | 11.3 | 19.3 | 0.00 | 0.00 | 0.00 | 80 | 1015.1 |
| 20260509230047 | 11 | 29 | 12.9 | 20.9 | 0.00 | 0.00 | 0.00 | 80 | 1015.0 |
| 20260509224537 | 11 | 28 | 12.9 | 19.3 | 0.00 | 0.00 | 0.00 | 79 | 1015.0 |
| 20260509223002 | 11 | 24 | 9.7 | 20.9 | 0.00 | 0.00 | 0.00 | 79 | 1015.2 |
| 20260509221621 | 11 | 5 | 11.3 | 17.7 | 0.00 | 0.00 | 0.00 | 78 | 1015.0 |
| 20260509220017 | 11 | 13 | 9.7 | 17.7 | 0.00 | 0.00 | 0.00 | 78 | 1015.0 |
| 20260509214501 | 11 | 5 | 11.3 | 17.7 | 0.00 | 0.00 | 0.00 | 77 | 1015.0 |
| 20260509213117 | 11 | 25 | 11.3 | 17.7 | 0.00 | 0.00 | 0.00 | 77 | 1015.1 |
| 20260509211606 | 11 | 17 | 11.3 | 16.1 | 0.00 | 0.00 | 0.00 | 77 | 1015.1 |
| 20260509210105 | 11 | 17 | 11.3 | 16.1 | 0.00 | 0.00 | 0.00 | 75 | 1014.9 |
| 20260509204517 | 12 | 12 | 9.7 | 16.1 | 0.00 | 0.00 | 0.00 | 74 | 1014.9 |
| 20260509203110 | 12 | 5 | 11.3 | 14.5 | 0.00 | 0.00 | 0.00 | 73 | 1014.8 |
| 20260509201600 | 13 | 30 | 8.0 | 12.9 | 0.00 | 0.00 | 0.00 | 71 | 1015.0 |
| 20260509200049 | 13 | 30 | 11.3 | 17.7 | 0.00 | 0.00 | 0.00 | 70 | 1014.8 |
| 20260509194510 | 13 | 26 | 9.7 | 16.1 | 0.00 | 0.00 | 0.00 | 70 | 1014.7 |
| 20260509193126 | 13 | 19 | 11.3 | 16.1 | 0.00 | 0.00 | 0.00 | 70 | 1014.6 |
| 20260509191616 | 14 | 5 | 9.7 | 16.1 | 0.00 | 0.00 | 0.00 | 70 | 1014.3 |
| 20260509184551 | 15 | 17 | 14.5 | 22.5 | 0.00 | 0.00 | 0.00 | 66 | 1014.5 |
| 20260509183038 | 16 | 5 | 11.3 | 22.5 | 0.00 | 0.00 | 0.00 | 65 | 1014.4 |
| 20260509181503 | 16 | 5 | 16.1 | 25.7 | 0.00 | 0.00 | 0.00 | 64 | 1014.3 |
| 20260509180118 | 17 | 23 | 11.3 | 22.5 | 0.00 | 0.00 | 0.00 | 63 | 1014.4 |
| 20260509174611 | 17 | 14 | 14.5 | 24.1 | 0.00 | 0.00 | 0.00 | 63 | 1014.3 |
| 20260509173118 | 17 | 5 | 17.7 | 29.0 | 0.00 | 0.00 | 0.00 | 62 | 1014.2 |
| 20260509171628 | 18 | 28 | 12.9 | 30.6 | 0.00 | 0.00 | 0.00 | 61 | 1014.0 |
| 20260509170129 | 18 | 26 | 17.7 | 30.6 | 0.00 | 0.00 | 0.00 | 60 | 1013.9 |
| 20260509164607 | 19 | 28 | 12.9 | 29.0 | 0.00 | 0.00 | 0.00 | 61 | 1014.1 |
| 20260509163051 | 19 | 26 | 22.5 | 32.2 | 0.00 | 0.00 | 0.00 | 57 | 1014.1 |
| 20260509161514 | 20 | 11 | 17.7 | 33.8 | 0.00 | 0.00 | 0.00 | 60 | 1014.0 |
| 20260509160002 | 20 | 5 | 19.3 | 30.6 | 0.00 | 0.00 | 0.00 | 60 | 1014.1 |
| 20260509154617 | 20 | 16 | 20.9 | 30.6 | 0.00 | 0.00 | 0.00 | 59 | 1014.0 |
| 20260509153103 | 20 | 18 | 16.1 | 24.1 | 0.00 | 0.00 | 0.00 | 53 | 1014.1 |
| 20260509151506 | 20 | 63 | 9.7 | 20.9 | 0.00 | 0.00 | 0.00 | 54 | 1014.0 |
| 20260509144552 | 21 | 5 | 11.3 | 24.1 | 0.00 | 0.00 | 0.00 | 53 | 1014.1 |
| 20260509143036 | 20 | 38 | 11.3 | 19.3 | 0.00 | 0.00 | 0.00 | 53 | 1014.2 |
| 20260509141629 | 20 | 52 | 14.5 | 24.1 | 0.00 | 0.00 | 0.00 | 54 | 1014.3 |
| 20260509140054 | 20 | 60 | 14.5 | 20.9 | 0.00 | 0.00 | 0.00 | 56 | 1014.3 |
| 20260509134519 | 20 | 58 | 6.4 | 22.5 | 0.00 | 0.00 | 0.00 | 55 | 1014.5 |
| 20260509133009 | 21 | 59 | 12.9 | 25.7 | 0.00 | 0.00 | 0.00 | 53 | 1014.6 |
| 20260509131623 | 20 | 68 | 8.0 | 25.7 | 0.00 | 0.00 | 0.00 | 57 | 1014.5 |
| 20260509130129 | 20 | 82 | 14.5 | 24.1 | 0.00 | 0.00 | 0.00 | 56 | 1014.7 |
| 20260509124541 | 20 | 64 | 6.4 | 24.1 | 0.00 | 0.00 | 0.00 | 55 | 1014.8 |
| 20260509123003 | 20 | 88 | 9.7 | 20.9 | 0.00 | 0.00 | 0.00 | 54 | 1015.2 |
| 20260509121619 | 20 | 15 | 12.9 | 19.3 | 0.00 | 0.00 | 0.00 | 53 | 1015.3 |
| 20260509120104 | 20 | 57 | 9.7 | 19.3 | 0.00 | 0.00 | 0.00 | 58 | 1015.4 |
| 20260509114625 | 20 | 42 | 3.2 | 22.5 | 0.00 | 0.00 | 0.00 | 54 | 1015.6 |
| 20260509113040 | 20 | 50 | 16.1 | 24.1 | 0.00 | 0.00 | 0.00 | 54 | 1015.7 |
| 20260509111506 | 20 | 67 | 16.1 | 22.5 | 0.00 | 0.00 | 0.00 | 56 | 1016.0 |
| 20260509110123 | 20 | 75 | 9.7 | 25.7 | 0.00 | 0.00 | 0.00 | 57 | 1016.2 |
| 20260509104611 | 19 | 52 | 14.5 | 25.7 | 0.00 | 0.00 | 0.00 | 55 | 1016.1 |
| 20260509103107 | 19 | 88 | 12.9 | 25.7 | 0.00 | 0.00 | 0.00 | 55 | 1016.2 |
| 20260509101631 | 19 | 98 | 12.9 | 20.9 | 0.00 | 0.00 | 0.00 | 59 | 1016.2 |
| 20260509100115 | 19 | 71 | 11.3 | 22.5 | 0.00 | 0.00 | 0.00 | 58 | 1016.3 |
| 20260509094543 | 18 | 60 | 16.1 | 24.1 | 0.00 | 0.00 | 0.00 | 56 | 1016.4 |
| 20260509093030 | 18 | 54 | 14.5 | 25.7 | 0.00 | 0.00 | 0.00 | 59 | 1016.4 |
| 20260509091602 | 18 | 72 | 16.1 | 22.5 | 0.00 | 0.00 | 0.00 | 60 | 1016.4 |
| 20260509090049 | 17 | 109 | 14.5 | 20.9 | 0.00 | 0.00 | 0.00 | 62 | 1016.5 |
| 20260509084514 | 17 | 106 | 16.1 | 22.5 | 0.00 | 0.00 | 0.00 | 61 | 1016.6 |
| 20260509083003 | 17 | 59 | 16.1 | 24.1 | 0.00 | 0.00 | 0.00 | 64 | 1016.6 |
| 20260509081619 | 17 | 89 | 16.1 | 25.7 | 0.00 | 0.00 | 0.00 | 64 | 1016.6 |
| 20260509080003 | 17 | 87 | 16.1 | 20.9 | 0.00 | 0.00 | 0.00 | 64 | 1016.8 |
| 20260509074619 | 16 | 77 | 14.5 | 19.3 | 0.00 | 0.00 | 0.00 | 67 | 1016.7 |
| 20260509073102 | 16 | 51 | 8.0 | 16.1 | 0.00 | 0.00 | 0.00 | 70 | 1016.7 |
| 20260509071506 | 15 | 73 | 9.7 | 14.5 | 0.00 | 0.00 | 0.00 | 73 | 1016.8 |
| 20260509070122 | 14 | 82 | 9.7 | 16.1 | 0.00 | 0.00 | 0.00 | 75 | 1016.8 |
| 20260509064504 | 13 | 65 | 8.0 | 16.1 | 0.00 | 0.00 | 0.00 | 75 | 1016.8 |